Regional Weather Roundup
Issued by NWS

Home | Current Version | Previous Version | Graphics & Text | Print | Product List | Glossary On
Versions: 1 2 3 4 5 6 7 8 9 10 11 12 13 14 15 16 17 18 19 20 21 22 23 24 25 26 27 28 29 30 31 32 33 34 35 36 37 38 39 40 41 42 43 44 45 46 47 48 49 50
000
ASUS44 KMEG 301400
RWRTN
TENNESSEE HOURLY STATE WEATHER ROUNDUP
NATIONAL WEATHER SERVICE MEMPHIS TN
900 AM CDT SAT APR 30 2016

TNZ002-004-019-021-049-052-054-088>092-301500-
WEST TENNESSEE

CITY           SKY/WX    TMP DP  RH WIND       PRES   REMARKS
MEMPHIS INTL   RAIN      65  62  90 SW6       29.88F FOG
NWS MEMPHIS      N/A     64 N/A N/A MISG        N/A
JACKSON        CLOUDY    64  62  93 S5        29.90S
DYERSBURG      CLOUDY    63  61  94 S10G24      N/A
UNION CITY     MOSUNNY   63  63 100 SE7       29.84F
LEXINGTON      CLOUDY    63  63 100 SE3       29.89R
$$

TNZ008-025-027-028-033-062-065-066-301500-
NORTH MIDDLE TENNESSEE

CITY           SKY/WX    TMP DP  RH WIND       PRES   REMARKS
NASHVILLE      CLOUDY    65  61  87 CALM      29.95S
CLARKSVILLE    LGT RAIN  62  60  93 E8        29.90F FOG
COOKEVILLE     PTSUNNY   63  61  94 NW5       29.97R
CROSSVILLE     CLOUDY    71  55  56 CALM      30.01R
$$

TNZ061-075-076-078-094-096-097-301500-
SOUTH MIDDLE TENNESSEE

CITY           SKY/WX    TMP DP  RH WIND       PRES   REMARKS
TULLAHOMA      PTSUNNY   64  61  88 CALM      29.97R
WINCHESTER     PTSUNNY   68  54  60 SE7       29.96R
MCMINNVILLE    CLOUDY    64  63  94 N5        29.95S
COLUMBIA       PTSUNNY  N/A N/A N/A CALM      29.91S
SHELBYVILLE    CLOUDY    64  63  94 CALM      29.96S
$$

TNZ017-018-042-046-047-301500-
NORTHEAST TENNESSEE

CITY           SKY/WX    TMP DP  RH WIND       PRES   REMARKS
TRI CITIES     PTSUNNY   69  54  58 VRB3      30.01S
$$

TNZ012-013-036-069-073-074-301500-
CENTRAL EAST TENNESSEE

CITY           SKY/WX    TMP DP  RH WIND       PRES   REMARKS
KNOXVILLE      CLOUDY    69  55  60 CALM      29.98R
OAK RIDGE      PTSUNNY   70  52  52 E3        30.00R
GATLINBURG     SUNNY     64  54  68 CALM      29.99
$$

TNZ083-085-099-301500-
SOUTHEAST TENNESSEE

CITY           SKY/WX    TMP DP  RH WIND       PRES   REMARKS
CHATTANOOGA    CLOUDY    68  59  73 CALM      29.98R
$$

SKY/WX REPORTED AS FAIR MEANS FEW OR NO CLOUDS BELOW
12 THOUSAND FEET.




USA.gov is the U.S. government's official web portal to all federal, state and local government web resources and services.